{"data":{"norad_id":64049,"intl_designator":"2025-103B","name":"TIANYI B","alt_names":[],"object_type":"PAYLOAD","status":"ACTIVE","operator":null,"country":"PRC","launch_date":"2025-05-17","launch_site_code":"JSC","launch_vehicle":null,"mission":null,"orbit_class":"UNKNOWN","rcs_meters":null,"size_class":null,"mass_kg":null,"dimensions":null,"purposes":[],"wikipedia_slug":null,"has_3d_model":false,"image_url":null,"decayed_at":null,"tle_current":{"epoch":"2026-05-25T04:41:42.541728Z","epoch_age_seconds":54073,"freshness":"FRESH","line1":"1 64049U 25103B   26145.19563127  .00002835  00000+0  13568-3 0  9999","line2":"2 64049  97.3800 217.5710 0000408 229.4703 130.6496 15.19763213 56574","mean_motion":15.19763213,"eccentricity":4.08e-5,"inclination_deg":97.38,"raan_deg":217.571,"arg_perigee_deg":229.4703,"mean_anomaly_deg":130.6496,"bstar":0.00013568,"rev_number":5657,"period_min":94.751602597187,"perigee_km":506.27473935429,"apogee_km":506.83653027329,"semimajor_km":6884.6926348138,"source":"CELESTRAK","updated_at":"2026-05-25T13:38:04.195911Z"}}}